| time (UTC) | temp C | wind direction | speed KPH | gust KPH | rain 1hr cm | rain 24hr cm | rain mn cm | humidity % | barometer mb |
| 20260507114054 | 3 | 0 | 0.0 | 0.0 | 0.00 | 0.00 | 0.00 | 91 | 1015.9 |
| 20260507113551 | 2 | 0 | 0.0 | 1.6 | 0.00 | 0.00 | 0.00 | 91 | 1015.7 |
| 20260507113054 | 2 | 0 | 0.0 | 1.6 | 0.00 | 0.00 | 0.00 | 90 | 1015.7 |
| 20260507112552 | 2 | 0 | 0.0 | 1.6 | 0.00 | 0.00 | 0.00 | 90 | 1015.6 |
| 20260507112052 | 2 | 0 | 0.0 | 0.0 | 0.00 | 0.00 | 0.00 | 90 | 1015.6 |
| 20260507111555 | 2 | 0 | 0.0 | 0.0 | 0.00 | 0.00 | 0.00 | 90 | 1015.4 |
| 20260507111050 | 2 | 0 | 0.0 | 0.0 | 0.00 | 0.00 | 0.00 | 90 | 1015.3 |
| 20260507110551 | 2 | 0 | 0.0 | 0.0 | 0.00 | 0.00 | 0.00 | 90 | 1015.3 |
| 20260507110059 | 2 | 0 | 0.0 | 0.0 | 0.00 | 0.00 | 0.00 | 90 | 1015.3 |
| 20260507105548 | 2 | 0 | 0.0 | 0.0 | 0.00 | 0.00 | 0.00 | 90 | 1015.3 |
| 20260507105048 | 2 | 0 | 0.0 | 0.0 | 0.00 | 0.00 | 0.00 | 90 | 1015.3 |
| 20260507104552 | 2 | 0 | 0.0 | 0.0 | 0.00 | 0.00 | 0.00 | 89 | 1015.2 |
| 20260507104048 | 2 | 0 | 0.0 | 0.0 | 0.00 | 0.00 | 0.00 | 90 | 1015.2 |
| 20260507103549 | 2 | 0 | 0.0 | 0.0 | 0.00 | 0.00 | 0.00 | 89 | 1015.2 |
| 20260507103050 | 2 | 0 | 0.0 | 0.0 | 0.00 | 0.00 | 0.00 | 89 | 1015.2 |
| 20260507102548 | 3 | 0 | 0.0 | 0.0 | 0.00 | 0.00 | 0.00 | 90 | 1015.1 |
| 20260507102048 | 3 | 0 | 0.0 | 0.0 | 0.00 | 0.00 | 0.00 | 90 | 1015.1 |
| 20260507101559 | 3 | 0 | 0.0 | 0.0 | 0.00 | 0.00 | 0.00 | 90 | 1015.1 |
| 20260507101051 | 3 | 0 | 0.0 | 0.0 | 0.00 | 0.00 | 0.00 | 90 | 1015.3 |
| 20260507100552 | 3 | 0 | 0.0 | 0.0 | 0.00 | 0.00 | 0.00 | 90 | 1015.1 |
| 20260507100056 | 3 | 0 | 0.0 | 0.0 | 0.00 | 0.00 | 0.00 | 90 | 1015.0 |
| 20260507095549 | 3 | 0 | 0.0 | 0.0 | 0.00 | 0.03 | 0.00 | 90 | 1015.1 |
| 20260507095051 | 3 | 0 | 0.0 | 0.0 | 0.00 | 0.03 | 0.00 | 90 | 1015.1 |
| 20260507094556 | 3 | 0 | 0.0 | 0.0 | 0.00 | 0.03 | 0.00 | 90 | 1015.0 |
| 20260507094048 | 3 | 0 | 0.0 | 0.0 | 0.00 | 0.03 | 0.00 | 90 | 1015.0 |
| 20260507093549 | 3 | 0 | 0.0 | 0.0 | 0.00 | 0.03 | 0.00 | 89 | 1015.1 |
| 20260507093054 | 3 | 0 | 0.0 | 0.0 | 0.00 | 0.03 | 0.00 | 89 | 1014.9 |
| 20260507092549 | 3 | 0 | 0.0 | 0.0 | 0.00 | 0.03 | 0.00 | 90 | 1015.0 |
| 20260507092052 | 3 | 0 | 0.0 | 0.0 | 0.00 | 0.03 | 0.00 | 89 | 1014.7 |
| 20260507091600 | 4 | 0 | 0.0 | 0.0 | 0.00 | 0.03 | 0.00 | 89 | 1014.8 |
| 20260507091052 | 4 | 0 | 0.0 | 0.0 | 0.00 | 0.03 | 0.00 | 89 | 1014.7 |
| 20260507090552 | 4 | 0 | 0.0 | 0.0 | 0.00 | 0.03 | 0.00 | 89 | 1014.8 |
| 20260507090059 | 4 | 0 | 0.0 | 0.0 | 0.00 | 0.03 | 0.00 | 89 | 1014.8 |
| 20260507085552 | 4 | 0 | 0.0 | 0.0 | 0.00 | 0.15 | 0.00 | 89 | 1014.9 |
| 20260507085053 | 4 | 0 | 0.0 | 0.0 | 0.00 | 0.15 | 0.00 | 89 | 1014.8 |
| 20260507084558 | 5 | 0 | 0.0 | 0.0 | 0.00 | 0.15 | 0.00 | 90 | 1014.8 |
| 20260507084051 | 5 | 0 | 0.0 | 0.0 | 0.00 | 0.15 | 0.00 | 90 | 1014.7 |
| 20260507083552 | 5 | 0 | 0.0 | 0.0 | 0.00 | 0.15 | 0.00 | 89 | 1014.8 |
| 20260507083055 | 5 | 0 | 0.0 | 0.0 | 0.00 | 0.15 | 0.00 | 89 | 1014.8 |
| 20260507082551 | 5 | 0 | 0.0 | 0.0 | 0.00 | 0.15 | 0.00 | 90 | 1014.6 |
| 20260507082048 | 5 | 0 | 0.0 | 0.0 | 0.00 | 0.15 | 0.00 | 89 | 1014.8 |
| 20260507081552 | 5 | 0 | 0.0 | 0.0 | 0.00 | 0.15 | 0.00 | 89 | 1014.7 |
| 20260507081051 | 5 | 0 | 0.0 | 0.0 | 0.00 | 0.15 | 0.00 | 90 | 1014.6 |
| 20260507080551 | 5 | 0 | 0.0 | 0.0 | 0.00 | 0.15 | 0.00 | 90 | 1014.6 |
| 20260507080056 | 5 | 0 | 0.0 | 0.0 | 0.00 | 0.15 | 0.00 | 89 | 1014.7 |
| 20260507075548 | 5 | 0 | 0.0 | 0.0 | 0.00 | 0.33 | 0.00 | 89 | 1014.6 |
| 20260507075054 | 5 | 0 | 0.0 | 0.0 | 0.00 | 0.33 | 0.00 | 90 | 1014.8 |
| 20260507074556 | 6 | 0 | 0.0 | 0.0 | 0.00 | 0.33 | 0.00 | 90 | 1014.7 |
| 20260507074051 | 6 | 0 | 0.0 | 0.0 | 0.00 | 0.33 | 0.00 | 89 | 1014.6 |
| 20260507073555 | 6 | 0 | 0.0 | 0.0 | 0.00 | 0.33 | 0.00 | 89 | 1014.8 |
| 20260507073133 | 6 | 0 | 0.0 | 0.0 | 0.00 | 0.33 | 0.00 | 89 | 1014.9 |
| 20260507072552 | 6 | 0 | 0.0 | 0.0 | 0.00 | 0.33 | 0.00 | 89 | 1014.8 |
| 20260507072048 | 6 | 0 | 0.0 | 0.0 | 0.00 | 0.33 | 0.00 | 89 | 1014.8 |
| 20260507071554 | 6 | 0 | 0.0 | 0.0 | 0.00 | 0.33 | 0.00 | 89 | 1014.7 |
| 20260507071051 | 6 | 0 | 0.0 | 0.0 | 0.00 | 0.33 | 0.00 | 89 | 1014.9 |
| 20260507070552 | 6 | 0 | 0.0 | 0.0 | 0.00 | 0.33 | 0.00 | 89 | 1014.9 |
| 20260507070058 | 6 | 0 | 0.0 | 0.0 | 0.00 | 0.33 | 0.00 | 89 | 1014.6 |
| 20260507065551 | 6 | 0 | 0.0 | 0.0 | 0.00 | 0.81 | 0.00 | 89 | 1014.6 |
| 20260507065051 | 6 | 0 | 0.0 | 0.0 | 0.00 | 0.81 | 0.00 | 88 | 1014.5 |
| 20260507064610 | 6 | 0 | 0.0 | 0.0 | 0.00 | 0.81 | 0.00 | 88 | 1014.9 |
| 20260507064050 | 6 | 0 | 0.0 | 0.0 | 0.00 | 0.81 | 0.00 | 88 | 1014.9 |
| 20260507063548 | 6 | 0 | 0.0 | 0.0 | 0.00 | 0.81 | 0.00 | 88 | 1015.0 |
| 20260507063106 | 6 | 0 | 0.0 | 0.0 | 0.00 | 0.81 | 0.00 | 88 | 1015.1 |
| 20260507062549 | 6 | 0 | 0.0 | 0.0 | 0.00 | 0.81 | 0.00 | 88 | 1014.9 |
| 20260507062049 | 6 | 0 | 0.0 | 0.0 | 0.00 | 0.81 | 0.00 | 88 | 1014.9 |
| 20260507061555 | 6 | 0 | 0.0 | 0.0 | 0.00 | 0.81 | 0.00 | 88 | 1014.8 |
| 20260507061051 | 6 | 0 | 0.0 | 0.0 | 0.00 | 0.81 | 0.00 | 88 | 1014.7 |
| 20260507060551 | 6 | 0 | 0.0 | 0.0 | 0.00 | 0.81 | 0.00 | 88 | 1014.7 |
| 20260507060059 | 6 | 0 | 0.0 | 0.0 | 0.00 | 0.81 | 0.00 | 88 | 1014.6 |
| 20260507055551 | 7 | 0 | 0.0 | 0.0 | 0.00 | 0.84 | 0.00 | 88 | 1014.5 |
| 20260507055050 | 7 | 0 | 0.0 | 0.0 | 0.00 | 0.84 | 0.00 | 88 | 1014.5 |
| 20260507054553 | 7 | 0 | 0.0 | 0.0 | 0.00 | 0.84 | 0.00 | 88 | 1014.4 |
| 20260507054052 | 7 | 0 | 0.0 | 0.0 | 0.00 | 0.84 | 0.00 | 88 | 1014.5 |
| 20260507053552 | 7 | 0 | 0.0 | 0.0 | 0.00 | 0.84 | 0.00 | 88 | 1014.6 |
| 20260507053052 | 7 | 0 | 0.0 | 0.0 | 0.00 | 0.84 | 0.00 | 88 | 1014.8 |
| 20260507052553 | 7 | 0 | 0.0 | 0.0 | 0.00 | 0.84 | 0.00 | 88 | 1014.8 |
| 20260507052048 | 7 | 0 | 0.0 | 0.0 | 0.00 | 0.84 | 0.00 | 87 | 1014.8 |
| 20260507051554 | 7 | 0 | 0.0 | 0.0 | 0.00 | 0.84 | 0.00 | 88 | 1014.8 |
| 20260507051052 | 7 | 0 | 0.0 | 0.0 | 0.00 | 0.84 | 0.00 | 88 | 1014.8 |
| 20260507050549 | 7 | 0 | 0.0 | 0.0 | 0.00 | 0.84 | 0.00 | 87 | 1014.9 |
| 20260507050059 | 7 | 0 | 0.0 | 0.0 | 0.00 | 0.84 | 0.00 | 87 | 1014.9 |
| 20260507045548 | 7 | 0 | 0.0 | 0.0 | 0.00 | 0.94 | 0.00 | 87 | 1014.9 |
| 20260507045048 | 7 | 0 | 0.0 | 0.0 | 0.00 | 0.94 | 0.00 | 87 | 1015.0 |
| 20260507044551 | 8 | 0 | 0.0 | 0.0 | 0.00 | 0.94 | 0.00 | 87 | 1015.2 |
| 20260507044048 | 8 | 0 | 0.0 | 0.0 | 0.00 | 0.94 | 0.00 | 87 | 1015.2 |
| 20260507043549 | 8 | 0 | 0.0 | 0.0 | 0.00 | 0.94 | 0.00 | 87 | 1015.2 |
| 20260507043053 | 8 | 0 | 0.0 | 0.0 | 0.00 | 0.94 | 0.00 | 86 | 1015.3 |
| 20260507042552 | 8 | 0 | 0.0 | 0.0 | 0.00 | 0.94 | 0.00 | 86 | 1015.4 |
| 20260507042052 | 8 | 0 | 0.0 | 0.0 | 0.00 | 0.94 | 0.00 | 86 | 1015.3 |
| 20260507041558 | 8 | 0 | 0.0 | 0.0 | 0.00 | 0.94 | 0.00 | 85 | 1015.3 |
| 20260507041051 | 8 | 0 | 0.0 | 0.0 | 0.00 | 0.94 | 0.00 | 85 | 1015.3 |
| 20260507040552 | 8 | 0 | 0.0 | 0.0 | 0.00 | 0.94 | 0.00 | 85 | 1015.4 |
| 20260507040107 | 8 | 0 | 0.0 | 0.0 | 0.00 | 0.94 | 0.00 | 85 | 1015.3 |
| 20260507035551 | 8 | 0 | 0.0 | 0.0 | 0.00 | 0.94 | 0.94 | 85 | 1015.2 |
| 20260507035051 | 8 | 0 | 0.0 | 0.0 | 0.00 | 0.94 | 0.94 | 85 | 1015.3 |
| 20260507034612 | 9 | 0 | 0.0 | 0.0 | 0.00 | 0.94 | 0.94 | 85 | 1015.2 |
| 20260507034051 | 9 | 0 | 0.0 | 0.0 | 0.00 | 0.94 | 0.94 | 84 | 1015.3 |
| 20260507033551 | 9 | 0 | 0.0 | 0.0 | 0.00 | 0.94 | 0.94 | 84 | 1015.3 |
| 20260507033106 | 9 | 0 | 0.0 | 0.0 | 0.00 | 0.94 | 0.94 | 84 | 1015.2 |
| 20260507032553 | 10 | 0 | 0.0 | 0.0 | 0.00 | 0.94 | 0.94 | 84 | 1015.0 |
| 20260507032051 | 10 | 0 | 0.0 | 0.0 | 0.00 | 0.94 | 0.94 | 84 | 1015.0 |
| 20260507031556 | 10 | 0 | 0.0 | 0.0 | 0.00 | 0.94 | 0.94 | 84 | 1014.9 |
| 20260507031053 | 10 | 0 | 0.0 | 0.0 | 0.00 | 0.94 | 0.94 | 84 | 1015.0 |
| 20260507030549 | 10 | 0 | 0.0 | 0.0 | 0.00 | 0.94 | 0.94 | 84 | 1015.0 |
| 20260507030051 | 10 | 0 | 0.0 | 0.0 | 0.00 | 0.94 | 0.94 | 84 | 1014.9 |
| 20260507025551 | 10 | 0 | 0.0 | 0.0 | 0.00 | 0.97 | 0.94 | 84 | 1014.9 |
| 20260507025051 | 10 | 0 | 0.0 | 0.0 | 0.00 | 0.97 | 0.94 | 83 | 1015.0 |
| 20260507024600 | 10 | 0 | 0.0 | 0.0 | 0.00 | 0.97 | 0.94 | 83 | 1014.9 |
| 20260507024050 | 10 | 0 | 0.0 | 0.0 | 0.00 | 0.97 | 0.94 | 83 | 1015.0 |
| 20260507023548 | 10 | 0 | 0.0 | 0.0 | 0.00 | 0.97 | 0.94 | 83 | 1014.9 |
| 20260507023052 | 11 | 0 | 0.0 | 0.0 | 0.00 | 0.97 | 0.94 | 83 | 1014.9 |
| 20260507022552 | 11 | 0 | 0.0 | 0.0 | 0.00 | 0.97 | 0.94 | 83 | 1014.7 |
| 20260507022051 | 11 | 0 | 0.0 | 0.0 | 0.00 | 0.97 | 0.94 | 83 | 1014.8 |
| 20260507021601 | 11 | 0 | 0.0 | 0.0 | 0.00 | 0.97 | 0.94 | 83 | 1014.7 |
| 20260507021051 | 11 | 0 | 0.0 | 0.0 | 0.00 | 0.97 | 0.94 | 83 | 1014.6 |
| 20260507020549 | 11 | 0 | 0.0 | 0.0 | 0.00 | 0.97 | 0.94 | 83 | 1014.6 |
| 20260507020054 | 11 | 0 | 0.0 | 0.0 | 0.00 | 0.97 | 0.94 | 83 | 1014.4 |
| 20260507015551 | 11 | 0 | 0.0 | 0.0 | 0.00 | 1.02 | 0.94 | 83 | 1014.5 |
| 20260507015053 | 11 | 0 | 0.0 | 0.0 | 0.00 | 1.02 | 0.94 | 83 | 1014.4 |
| 20260507014555 | 11 | 0 | 0.0 | 0.0 | 0.00 | 1.02 | 0.94 | 83 | 1014.4 |
| 20260507014051 | 11 | 0 | 0.0 | 0.0 | 0.00 | 1.02 | 0.94 | 82 | 1014.7 |
| 20260507013551 | 11 | 0 | 0.0 | 0.0 | 0.00 | 1.02 | 0.94 | 82 | 1014.7 |
| 20260507013114 | 11 | 0 | 0.0 | 0.0 | 0.00 | 1.02 | 0.94 | 82 | 1014.5 |
| 20260507012550 | 11 | 0 | 0.0 | 0.0 | 0.00 | 1.02 | 0.94 | 82 | 1014.5 |
| 20260507012052 | 12 | 0 | 0.0 | 0.0 | 0.00 | 1.02 | 0.94 | 82 | 1014.4 |
| 20260507011553 | 12 | 0 | 0.0 | 0.0 | 0.00 | 1.02 | 0.94 | 81 | 1014.3 |
| 20260507011049 | 12 | 0 | 0.0 | 0.0 | 0.00 | 1.02 | 0.94 | 81 | 1014.2 |
| 20260507010549 | 12 | 0 | 0.0 | 0.0 | 0.00 | 1.02 | 0.94 | 81 | 1014.1 |
| 20260507010056 | 12 | 0 | 0.0 | 0.0 | 0.00 | 1.02 | 0.94 | 81 | 1014.1 |
| 20260507005556 | 12 | 0 | 0.0 | 0.0 | 0.00 | 1.32 | 0.94 | 81 | 1014.1 |
| 20260507005049 | 12 | 0 | 0.0 | 0.0 | 0.00 | 1.32 | 0.94 | 81 | 1014.0 |
| 20260507004556 | 12 | 0 | 0.0 | 0.0 | 0.00 | 1.32 | 0.94 | 81 | 1014.0 |
| 20260507004048 | 12 | 0 | 0.0 | 0.0 | 0.00 | 1.32 | 0.94 | 81 | 1014.0 |
| 20260507003552 | 12 | 0 | 0.0 | 0.0 | 0.00 | 1.32 | 0.94 | 81 | 1014.0 |
| 20260507003057 | 12 | 0 | 0.0 | 0.0 | 0.00 | 1.32 | 0.94 | 81 | 1014.0 |
| 20260507002548 | 13 | 0 | 0.0 | 0.0 | 0.00 | 1.32 | 0.94 | 80 | 1013.9 |
| 20260507002048 | 13 | 0 | 0.0 | 0.0 | 0.00 | 1.32 | 0.94 | 79 | 1013.6 |
| 20260507001610 | 13 | 0 | 0.0 | 0.0 | 0.00 | 1.32 | 0.94 | 78 | 1013.7 |
| 20260507001051 | 13 | 0 | 0.0 | 0.0 | 0.00 | 1.32 | 0.94 | 77 | 1013.7 |
| 20260507000548 | 13 | 0 | 0.0 | 0.0 | 0.00 | 1.32 | 0.94 | 77 | 1013.6 |
| 20260507000054 | 13 | 0 | 0.0 | 0.0 | 0.00 | 1.32 | 0.94 | 76 | 1013.6 |
| 20260506235549 | 13 | 0 | 0.0 | 0.0 | 0.00 | 1.40 | 0.94 | 75 | 1013.5 |
| 20260506235050 | 13 | 0 | 0.0 | 0.0 | 0.00 | 1.40 | 0.94 | 75 | 1013.5 |
| 20260506234601 | 13 | 0 | 0.0 | 0.0 | 0.00 | 1.40 | 0.94 | 75 | 1013.5 |
| 20260506234051 | 14 | 0 | 0.0 | 1.6 | 0.00 | 1.40 | 0.94 | 75 | 1013.5 |
| 20260506233552 | 14 | 0 | 0.0 | 1.6 | 0.00 | 1.40 | 0.94 | 76 | 1013.4 |
| 20260506233057 | 14 | 0 | 0.0 | 0.0 | 0.00 | 1.40 | 0.94 | 75 | 1013.3 |
| 20260506232551 | 15 | 0 | 0.0 | 1.6 | 0.00 | 1.40 | 0.94 | 74 | 1013.6 |
| 20260506232048 | 15 | 0 | 0.0 | 3.2 | 0.00 | 1.40 | 0.94 | 74 | 1013.3 |
| 20260506231556 | 15 | 0 | 0.0 | 3.2 | 0.00 | 1.40 | 0.94 | 73 | 1012.9 |
| 20260506231047 | 15 | 0 | 0.0 | 1.6 | 0.00 | 1.40 | 0.94 | 72 | 1012.8 |
| 20260506230551 | 15 | 0 | 0.0 | 1.6 | 0.00 | 1.40 | 0.94 | 71 | 1012.7 |
| 20260506230059 | 15 | 254 | 0.0 | 6.4 | 0.00 | 1.40 | 0.94 | 70 | 1012.5 |
| 20260506225550 | 15 | 0 | 0.0 | 6.4 | 0.00 | 1.40 | 0.94 | 64 | 1012.8 |
| 20260506225048 | 15 | 254 | 1.6 | 6.4 | 0.00 | 1.40 | 0.94 | 65 | 1013.0 |
| 20260506224606 | 15 | 0 | 0.0 | 11.3 | 0.00 | 1.40 | 0.94 | 65 | 1012.6 |
| 20260506224051 | 15 | 300 | 1.6 | 11.3 | 0.00 | 1.40 | 0.94 | 61 | 1012.9 |
| 20260506223551 | 15 | 0 | 3.2 | 11.3 | 0.00 | 1.40 | 0.94 | 62 | 1013.0 |
| 20260506223059 | 15 | 271 | 1.6 | 4.8 | 0.00 | 1.40 | 0.94 | 65 | 1012.7 |
| 20260506222549 | 15 | 257 | 0.0 | 3.2 | 0.00 | 1.40 | 0.94 | 68 | 1012.5 |
| 20260506222052 | 15 | 0 | 0.0 | 4.8 | 0.00 | 1.40 | 0.94 | 67 | 1012.6 |
| 20260506221601 | 15 | 257 | 0.0 | 4.8 | 0.00 | 1.40 | 0.94 | 66 | 1012.7 |
| 20260506221048 | 15 | 0 | 1.6 | 4.8 | 0.00 | 1.40 | 0.94 | 63 | 1013.1 |
| 20260506220548 | 15 | 267 | 0.0 | 4.8 | 0.00 | 1.40 | 0.94 | 62 | 1013.0 |
| 20260506220106 | 15 | 0 | 0.0 | 6.4 | 0.00 | 1.40 | 0.94 | 64 | 1012.9 |
| 20260506215549 | 15 | 165 | 1.6 | 6.4 | 0.00 | 1.42 | 0.94 | 62 | 1012.8 |
| 20260506215052 | 15 | 223 | 1.6 | 6.4 | 0.00 | 1.42 | 0.94 | 61 | 1013.2 |
| 20260506214555 | 15 | 271 | 3.2 | 11.3 | 0.00 | 1.42 | 0.94 | 62 | 1013.4 |
| 20260506214050 | 15 | 249 | 1.6 | 11.3 | 0.00 | 1.42 | 0.94 | 61 | 1013.2 |
| 20260506213550 | 15 | 265 | 3.2 | 11.3 | 0.00 | 1.42 | 0.94 | 63 | 1013.0 |
| 20260506213059 | 16 | 0 | 0.0 | 4.8 | 0.00 | 1.42 | 0.94 | 63 | 1012.8 |
| 20260506212552 | 16 | 232 | 0.0 | 4.8 | 0.00 | 1.42 | 0.94 | 67 | 1012.8 |
| 20260506212052 | 16 | 121 | 0.0 | 4.8 | 0.00 | 1.42 | 0.94 | 64 | 1012.8 |
| 20260506211557 | 16 | 123 | 0.0 | 4.8 | 0.00 | 1.42 | 0.94 | 64 | 1012.8 |
| 20260506211051 | 16 | 180 | 0.0 | 4.8 | 0.00 | 1.42 | 0.94 | 64 | 1012.7 |
| 20260506210552 | 16 | 167 | 1.6 | 4.8 | 0.00 | 1.42 | 0.94 | 63 | 1012.8 |
| 20260506210055 | 16 | 181 | 1.6 | 9.7 | 0.00 | 1.42 | 0.94 | 61 | 1012.8 |
| 20260506205551 | 16 | 112 | 1.6 | 9.7 | 0.00 | 1.42 | 0.94 | 62 | 1012.7 |
| 20260506205048 | 16 | 284 | 0.0 | 6.4 | 0.00 | 1.42 | 0.94 | 64 | 1012.5 |
| 20260506204554 | 16 | 219 | 0.0 | 6.4 | 0.00 | 1.42 | 0.94 | 64 | 1012.4 |
| 20260506204049 | 16 | 294 | 1.6 | 6.4 | 0.00 | 1.42 | 0.94 | 64 | 1012.4 |
| 20260506203549 | 16 | 0 | 1.6 | 9.7 | 0.00 | 1.42 | 0.94 | 61 | 1012.6 |
| 20260506203100 | 16 | 281 | 3.2 | 9.7 | 0.00 | 1.42 | 0.94 | 61 | 1012.9 |
| 20260506202550 | 16 | 278 | 1.6 | 6.4 | 0.00 | 1.42 | 0.94 | 64 | 1013.0 |
| 20260506202053 | 16 | 267 | 1.6 | 9.7 | 0.00 | 1.42 | 0.94 | 64 | 1013.0 |
| 20260506201553 | 16 | 0 | 1.6 | 9.7 | 0.00 | 1.42 | 0.94 | 63 | 1013.0 |
| 20260506201051 | 16 | 275 | 1.6 | 11.3 | 0.00 | 1.42 | 0.94 | 63 | 1013.0 |
| 20260506200556 | 16 | 0 | 1.6 | 12.9 | 0.00 | 1.42 | 0.94 | 63 | 1012.9 |
| 20260506200052 | 16 | 257 | 4.8 | 12.9 | 0.00 | 1.42 | 0.94 | 62 | 1013.0 |
| 20260506195551 | 16 | 270 | 1.6 | 12.9 | 0.00 | 1.42 | 0.94 | 62 | 1013.0 |
| 20260506195051 | 16 | 0 | 3.2 | 12.9 | 0.00 | 1.42 | 0.94 | 64 | 1012.8 |
| 20260506194558 | 16 | 261 | 4.8 | 11.3 | 0.00 | 1.42 | 0.94 | 63 | 1012.8 |
| 20260506194052 | 16 | 67 | 1.6 | 12.9 | 0.00 | 1.42 | 0.94 | 66 | 1012.7 |
| 20260506193551 | 16 | 234 | 4.8 | 12.9 | 0.00 | 1.42 | 0.94 | 65 | 1012.8 |
| 20260506193059 | 16 | 232 | 3.2 | 12.9 | 0.00 | 1.42 | 0.94 | 65 | 1012.8 |
| 20260506192551 | 16 | 248 | 1.6 | 8.0 | 0.00 | 1.42 | 0.94 | 66 | 1012.9 |
| 20260506192051 | 16 | 0 | 3.2 | 6.4 | 0.00 | 1.42 | 0.94 | 65 | 1012.8 |
| 20260506191555 | 16 | 115 | 1.6 | 8.0 | 0.00 | 1.42 | 0.94 | 66 | 1013.0 |
| 20260506191048 | 16 | 243 | 1.6 | 8.0 | 0.00 | 1.42 | 0.94 | 66 | 1012.9 |
| 20260506190552 | 16 | 273 | 1.6 | 9.7 | 0.00 | 1.42 | 0.94 | 65 | 1012.9 |
| 20260506190053 | 15 | 0 | 1.6 | 9.7 | 0.00 | 1.42 | 0.94 | 66 | 1012.8 |
| 20260506185551 | 15 | 96 | 3.2 | 9.7 | 0.00 | 1.42 | 0.94 | 66 | 1012.6 |
| 20260506185051 | 15 | 271 | 0.0 | 6.4 | 0.00 | 1.42 | 0.94 | 68 | 1012.7 |
| 20260506184557 | 15 | 0 | 0.0 | 6.4 | 0.00 | 1.42 | 0.94 | 72 | 1012.9 |
| 20260506184051 | 15 | 237 | 3.2 | 12.9 | 0.00 | 1.42 | 0.94 | 71 | 1012.9 |
| 20260506183551 | 15 | 172 | 3.2 | 12.9 | 0.00 | 1.42 | 0.94 | 69 | 1012.8 |
| 20260506183101 | 15 | 107 | 4.8 | 12.9 | 0.00 | 1.42 | 0.94 | 70 | 1012.8 |
| 20260506182552 | 15 | 171 | 1.6 | 11.3 | 0.00 | 1.42 | 0.94 | 70 | 1012.6 |
| 20260506182048 | 15 | 126 | 3.2 | 11.3 | 0.00 | 1.42 | 0.94 | 70 | 1012.6 |
| 20260506181620 | 15 | 96 | 3.2 | 11.3 | 0.00 | 1.42 | 0.94 | 73 | 1012.5 |
| 20260506181054 | 15 | 109 | 3.2 | 11.3 | 0.00 | 1.42 | 0.94 | 71 | 1012.4 |
| 20260506180554 | 15 | 52 | 3.2 | 12.9 | 0.00 | 1.42 | 0.94 | 72 | 1012.7 |
| 20260506180052 | 15 | 279 | 4.8 | 12.9 | 0.00 | 1.42 | 0.94 | 69 | 1012.9 |
| 20260506175551 | 15 | 255 | 4.8 | 12.9 | 0.00 | 1.42 | 0.94 | 74 | 1012.9 |
| 20260506175051 | 14 | 244 | 4.8 | 12.9 | 0.00 | 1.42 | 0.94 | 74 | 1013.0 |
| 20260506174556 | 14 | 222 | 1.6 | 11.3 | 0.00 | 1.42 | 0.94 | 75 | 1012.9 |
| 20260506174051 | 14 | 293 | 4.8 | 11.3 | 0.00 | 1.42 | 0.94 | 76 | 1012.8 |
| 20260506173552 | 13 | 227 | 3.2 | 9.7 | 0.00 | 1.42 | 0.94 | 76 | 1013.0 |
| 20260506173122 | 13 | 190 | 3.2 | 8.0 | 0.00 | 1.42 | 0.94 | 76 | 1013.0 |
| 20260506172551 | 13 | 207 | 3.2 | 11.3 | 0.00 | 1.42 | 0.94 | 74 | 1013.0 |
| 20260506172048 | 13 | 84 | 1.6 | 11.3 | 0.00 | 1.42 | 0.94 | 77 | 1013.0 |
| 20260506171601 | 13 | 310 | 3.2 | 11.3 | 0.00 | 1.42 | 0.94 | 78 | 1013.2 |
| 20260506171050 | 13 | 91 | 1.6 | 11.3 | 0.00 | 1.42 | 0.94 | 76 | 1013.0 |
| 20260506170548 | 13 | 263 | 4.8 | 11.3 | 0.00 | 1.42 | 0.94 | 77 | 1013.3 |
| 20260506170104 | 13 | 240 | 1.6 | 9.7 | 0.00 | 1.42 | 0.94 | 77 | 1013.4 |
| 20260506165553 | 13 | 0 | 3.2 | 11.3 | 0.00 | 1.42 | 0.94 | 75 | 1013.3 |
| 20260506165048 | 14 | 309 | 4.8 | 11.3 | 0.00 | 1.42 | 0.94 | 75 | 1013.3 |
| 20260506164553 | 13 | 340 | 1.6 | 11.3 | 0.00 | 1.42 | 0.94 | 79 | 1013.1 |
| 20260506164050 | 13 | 119 | 3.2 | 11.3 | 0.00 | 1.42 | 0.94 | 78 | 1013.1 |
| 20260506163551 | 13 | 273 | 3.2 | 11.3 | 0.00 | 1.42 | 0.94 | 78 | 1013.1 |
| 20260506163055 | 13 | 246 | 4.8 | 11.3 | 0.00 | 1.42 | 0.94 | 79 | 1012.9 |
| 20260506162548 | 13 | 223 | 3.2 | 9.7 | 0.00 | 1.42 | 0.94 | 79 | 1013.0 |
| 20260506162051 | 13 | 11 | 3.2 | 9.7 | 0.00 | 1.42 | 0.94 | 80 | 1012.9 |
| 20260506161555 | 13 | 204 | 1.6 | 11.3 | 0.00 | 1.42 | 0.94 | 81 | 1013.3 |
| 20260506161048 | 13 | 279 | 3.2 | 12.9 | 0.00 | 1.42 | 0.94 | 82 | 1013.1 |
| 20260506160548 | 12 | 235 | 4.8 | 12.9 | 0.00 | 1.42 | 0.94 | 82 | 1013.1 |
| 20260506160110 | 12 | 261 | 3.2 | 11.3 | 0.00 | 1.42 | 0.94 | 82 | 1013.1 |
| 20260506155548 | 12 | 186 | 3.2 | 11.3 | 0.00 | 1.42 | 0.94 | 83 | 1012.9 |
| 20260506155048 | 12 | 219 | 0.0 | 11.3 | 0.00 | 1.42 | 0.94 | 84 | 1012.9 |
| 20260506154559 | 12 | 110 | 0.0 | 11.3 | 0.00 | 1.42 | 0.94 | 84 | 1012.9 |
| 20260506154048 | 12 | 88 | 1.6 | 9.7 | 0.00 | 1.42 | 0.94 | 85 | 1013.0 |
| 20260506153548 | 12 | 82 | 3.2 | 6.4 | 0.00 | 1.42 | 0.94 | 86 | 1013.0 |
| 20260506153055 | 12 | 170 | 1.6 | 6.4 | 0.00 | 1.42 | 0.94 | 86 | 1012.7 |
| 20260506152610 | 11 | 19 | 1.6 | 11.3 | 0.00 | 1.42 | 0.94 | 87 | 1012.6 |
| 20260506152052 | 11 | 281 | 1.6 | 11.3 | 0.00 | 1.42 | 0.94 | 88 | 1012.7 |
| 20260506151557 | 11 | 275 | 4.8 | 11.3 | 0.00 | 1.42 | 0.94 | 89 | 1012.8 |
| 20260506151051 | 11 | 254 | 1.6 | 9.7 | 0.00 | 1.42 | 0.94 | 89 | 1012.6 |
| 20260506150548 | 11 | 0 | 1.6 | 9.7 | 0.00 | 1.42 | 0.94 | 90 | 1012.7 |
| 20260506150057 | 11 | 86 | 1.6 | 6.4 | 0.00 | 1.42 | 0.94 | 91 | 1012.5 |
| 20260506145552 | 10 | 132 | 1.6 | 6.4 | 0.00 | 1.42 | 0.94 | 90 | 1012.4 |
| 20260506145048 | 10 | 299 | 3.2 | 6.4 | 0.00 | 1.42 | 0.94 | 91 | 1012.4 |
| 20260506144554 | 10 | 112 | 1.6 | 6.4 | 0.00 | 1.42 | 0.94 | 91 | 1012.3 |
| 20260506144051 | 10 | 74 | 0.0 | 9.7 | 0.00 | 1.42 | 0.94 | 92 | 1012.3 |
| 20260506143551 | 10 | 72 | 3.2 | 9.7 | 0.00 | 1.42 | 0.94 | 92 | 1012.4 |
| 20260506143057 | 10 | 275 | 0.0 | 9.7 | 0.00 | 1.42 | 0.94 | 92 | 1012.2 |
| 20260506142550 | 10 | 346 | 1.6 | 9.7 | 0.00 | 1.42 | 0.94 | 92 | 1012.2 |
| 20260506142050 | 9 | 306 | 0.0 | 3.2 | 0.00 | 1.42 | 0.94 | 92 | 1012.0 |
| 20260506141554 | 9 | 84 | 0.0 | 6.4 | 0.00 | 1.42 | 0.94 | 92 | 1011.9 |
| 20260506141052 | 9 | 0 | 1.6 | 6.4 | 0.00 | 1.42 | 0.94 | 92 | 1011.9 |
| 20260506140551 | 9 | 189 | 1.6 | 4.8 | 0.00 | 1.42 | 0.94 | 92 | 1012.0 |
| 20260506140056 | 9 | 0 | 0.0 | 4.8 | 0.00 | 1.42 | 0.94 | 92 | 1012.0 |
| 20260506135551 | 9 | 105 | 1.6 | 6.4 | 0.00 | 1.42 | 0.94 | 92 | 1011.8 |
| 20260506135048 | 8 | 146 | 1.6 | 6.4 | 0.00 | 1.42 | 0.94 | 92 | 1011.6 |
| 20260506134559 | 8 | 0 | 1.6 | 6.4 | 0.00 | 1.42 | 0.94 | 92 | 1011.6 |
| 20260506134051 | 8 | 0 | 0.0 | 3.2 | 0.00 | 1.42 | 0.94 | 92 | 1011.5 |
| 20260506133549 | 8 | 0 | 0.0 | 4.8 | 0.00 | 1.42 | 0.94 | 92 | 1011.5 |
| 20260506133111 | 8 | 355 | 0.0 | 6.4 | 0.00 | 1.42 | 0.94 | 92 | 1011.5 |
| 20260506132551 | 8 | 116 | 0.0 | 11.3 | 0.00 | 1.42 | 0.94 | 92 | 1011.6 |
| 20260506132048 | 8 | 234 | 1.6 | 11.3 | 0.00 | 1.42 | 0.94 | 92 | 1011.6 |
| 20260506131602 | 8 | 289 | 1.6 | 11.3 | 0.00 | 1.42 | 0.94 | 92 | 1011.6 |
| 20260506131048 | 8 | 219 | 1.6 | 11.3 | 0.00 | 1.42 | 0.94 | 92 | 1011.5 |
| 20260506130548 | 8 | 0 | 4.8 | 11.3 | 0.00 | 1.42 | 0.94 | 92 | 1011.7 |
| 20260506130056 | 8 | 0 | 1.6 | 12.9 | 0.00 | 1.42 | 0.94 | 92 | 1011.5 |
| 20260506125550 | 8 | 236 | 6.4 | 12.9 | 0.00 | 1.42 | 0.94 | 92 | 1011.4 |
| 20260506125047 | 8 | 53 | 3.2 | 9.7 | 0.00 | 1.42 | 0.94 | 92 | 1011.1 |
| 20260506124558 | 8 | 282 | 1.6 | 9.7 | 0.00 | 1.42 | 0.94 | 92 | 1011.1 |
| 20260506124051 | 8 | 248 | 1.6 | 12.9 | 0.00 | 1.42 | 0.94 | 93 | 1010.9 |
| 20260506123552 | 8 | 0 | 3.2 | 12.9 | 0.00 | 1.42 | 0.94 | 93 | 1010.7 |
| 20260506123054 | 8 | 323 | 3.2 | 9.7 | 0.00 | 1.42 | 0.94 | 93 | 1010.8 |
| 20260506122552 | 8 | 234 | 1.6 | 8.0 | 0.00 | 1.42 | 0.94 | 92 | 1010.7 |
| 20260506122048 | 8 | 227 | 3.2 | 9.7 | 0.00 | 1.42 | 0.94 | 92 | 1010.6 |
| 20260506121609 | 8 | 282 | 3.2 | 9.7 | 0.00 | 1.42 | 0.94 | 92 | 1010.7 |
| 20260506121048 | 8 | 0 | 0.0 | 9.7 | 0.00 | 1.42 | 0.94 | 92 | 1010.8 |
| 20260506120551 | 8 | 0 | 1.6 | 9.7 | 0.00 | 1.42 | 0.94 | 92 | 1010.9 |
| 20260506120100 | 8 | 295 | 1.6 | 11.3 | 0.00 | 1.42 | 0.94 | 92 | 1010.7 |
| 20260506115549 | 8 | 307 | 4.8 | 11.3 | 0.00 | 1.42 | 0.94 | 92 | 1010.6 |
| 20260506115048 | 8 | 245 | 1.6 | 4.8 | 0.00 | 1.42 | 0.94 | 92 | 1010.6 |
| 20260506114556 | 8 | 245 | 1.6 | 6.4 | 0.00 | 1.42 | 0.94 | 92 | 1010.4 |